Погода в Стройкерамике

Россия / Самарская область     53°16′13″N   50°23′36″E
темп.,
°C
ветер,
м/с
пор.,
м/с
влажн.,
%
обл.,
%
осадки,
мм/ч
давл.,
гПа
погр.,
м
8 мая, сб
сб801:00+12юз1159100 0.0 101610
04:00+12юв2262100 0.0 101616
07:00+14св115999 0.0 101670
10:00+18ююв234621 0.0 1016993
13:00+21ююз453597 0.0 10152581
16:00+20ююв44416 0.0 10151976
19:00+19юв34502 0.0 101453
22:00+14юв49616 0.0 1014150
9 мая, вс
вс901:00+12юв3369100 0.0 101445
04:00+12юв2270100 0.0 101411
07:00+14ююв236763 0.0 1014146
10:00+20ю464797 0.0 10141055
13:00+22ю463582 0.0 10141795
16:00+23ю4539100 0.0 10131856
19:00+20юв3554100 0.0 101373
22:00+18юв395472 0.0 1014194
10 мая, пн
пн1001:00+17юв2459100 0.0 101480
04:00+14юв1169100 0.0 101512
07:00+16св2266100 0.0 101790
10:00+20в2350100 0.0 1018541
13:00+24вюв2438100 0.0 10181743
16:00+25в2438100 0.0 10182175
19:00+17с101578100 0.0 1020402
22:00+15с71283100 0.3 1022352
11 мая, вт
вт1101:00+15ссв41183100 0.1 1022418
04:00+14ссв51184100 0.1 1023338
07:00+14ссв4984100 0.0 1025320
10:00+17св6770100 0.0 1025471
13:00+22всв565123 0.0 10251187
16:00+24всв564611 0.0 10251902
19:00+21св5960100 0.0 1026351
22:00+17св5127462 0.0 1026317
12 мая, ср
ср1201:00+15всв5126981 0.0 1027310
04:00+13всв5117046 0.0 1027263
07:00+14всв5106786 0.0 1028334
10:00+19всв675365 0.0 1028676
13:00+22всв554599 0.0 10271137
16:00+22всв553889 0.0 10261269
19:00+19всв484997 0.0 1026223
22:00+15всв5125723 0.0 1026233